"Pseudo-MPEC" for C366XV2

Created 2020 Sep 18 5:07:06 UT using Find_Orb

Click here for an explanation of pseudo-MPECs

 
 Astrometry: 
     C366XV2  C2020 09 15.10692 16 05 59.03 -01 52 59.5    ~9G6M 20.1 GVNEOCPG96
     C366XV2  C2020 09 15.11114 16 05 59.64 -01 52 45.9    ~9G6M 20.3 GVNEOCPG96
     C366XV2  C2020 09 15.11537 16 06 00.28 -01 52 32.1    ~9G6M 20.3 GVNEOCPG96
     C366XV2  C2020 09 15.11959 16 06 00.85 -01 52 18.8    ~9G6M 19.9 GVNEOCPG96
     C366XV2  C2020 09 16.13638 16 08 31.82 -00 57 10.5    ~9G6M 20.8 GVNEOCPG96
     C366XV2  C2020 09 16.13714 16 08 31.89 -00 57 09.5    ~9G6M 20.2 GVNEOCPG96
     C366XV2  C2020 09 16.13789 16 08 32.05 -00 57 06.5    ~9G6M 20.9 GVNEOCPG96
     C366XV2  C2020 09 17.10283 16 10 50.16 -00 05 55.5    ~9H2q 19.9 GVNEOCPI52
     C366XV2  C2020 09 17.10415 16 10 50.41 -00 05 52.6    ~9H2q 20.4 GVNEOCPV06
     C366XV2  C2020 09 17.10461 16 10 50.44 -00 05 51.1    ~9H2q 20.4 GVNEOCPI52
     C366XV2  C2020 09 17.10548 16 10 50.59 -00 05 48.4    ~9H2q 20.2 GVNEOCPV06
     C366XV2  C2020 09 17.10639 16 10 50.70 -00 05 45.1    ~9H2q 20.0 GVNEOCPI52
     C366XV2  C2020 09 17.10682 16 10 50.77 -00 05 44.2    ~9H2q 20.2 GVNEOCPV06
     C366XV2  C2020 09 17.10815 16 10 50.94 -00 05 40.0    ~9H2q 20.4 GVNEOCPV06
     C366XV2  C2020 09 17.10817 16 10 50.92 -00 05 39.9    ~9H2q 19.7 GVNEOCPI52
     C366XV2 KC2020 09 18IAy8g1E5yAstrometryw+bdbim0.It1/U!RBredacted;JH$u*(]711
     C366XV2 KC2020 09 18@*H@sq%[g-)Q,%'oZ]GV-o5(T=xclick7]\:WVN5Zdherehm-^y3711
     C366XV2 KC2020 09 18eoG$/fmk@0D1GK%for\A-qqMDd[(nGgoJ]explanations3IfYCP711
     C366XV2  C2020 09 18.13712 16 13 12.39 +00 47 42.8    ~9I3q       VNEOCPG96
     C366XV2  C2020 09 18.13886 16 13 12.62 +00 47 47.7    ~9I3q       VNEOCPG96

Station data:
(711) McDonald Observatory, Fort Davis  (N30.671481 W104.021500)  US/Texas.
   0.76-m f/3.0 reflector.
(G96) Mt. Lemmon Survey  (N32.442754 W110.788720)  US/Arizona.  Observers T.
   A. Pruyne, B. M. Africano, E. J. Christensen, G. A. Farneth, D. C. Fuls,
   A. R. Gibbs, A. D. Grauer, H. Gröller, J. A. Johnson, R. A. Kowalski, S.
   M. Larson, G. J. Leonard, D. Rankin, R. L. Seaman, F. C. Shelly. 1.5-m
   reflector + 10K CCD.
(I52) Steward Observatory, Mt. Lemmon Station  (N32.442547 W110.788920)
   US/Arizona.  Observers T. A. Pruyne, B. M. Africano, E. J. Christensen, G.
   A. Farneth, D. C. Fuls, A. R. Gibbs, A. D. Grauer, H. Gröller, J. A.
   Johnson, R. A. Kowalski, S. M. Larson, G. J. Leonard, D. Rankin, R. L.
   Seaman, F. C. Shelly. 1.0-m reflector + CCD.
(V06) Catalina Sky Survey-Kuiper  (N32.416847 W110.732550)  US/Arizona.
   Observers T. A. Pruyne, B. M. Africano, E. J. Christensen, G. A. Farneth,
   D. C. Fuls, A. R. Gibbs, A. D. Grauer, H. Gröller, J. A. Johnson, R. A.
   Kowalski, S. M. Larson, G. J. Leonard, D. Rankin, R. L. Seaman, F. C.
   Shelly. 1.55-m reflector + CCD.

Orbital elements:  C366XV2
   Perihelion 2020 Dec 17.978628 +/- 0.0205 TT = 23:29:13 (JD 2459201.478628)
Epoch 2020 Sep 18.0 TT = JDT 2459110.5   Earth MOID: 0.0445   Ve: 0.0702
M 238.33790268 +/- 0.23             (J2000 ecliptic)          AutoNEOCP
n   1.33726018 +/- 0.00227          Peri.  156.93136 +/- 0.22
a   0.81594103 +/- 0.000925         Node   317.83444 +/- 0.12
e   0.2126939 +/- 0.000814          Incl.   33.56388 +/- 0.24
P   0.74/269.20d           H 19.6   G  0.15   U  8.7  
q 0.64239533 +/- 0.00139    Q 0.98948672 +/- 0.000466
From 20 observations 2020 Sept. 15-18; mean residual 0".37
Residuals in arcseconds: 
200915 G96  .05+  .37+    200917 I52  .80-  .96+    200917 I52  .19-  .25-    
200915 G96  .02-  .08+    200917 V06  .30+  .30-    200918 711  .05+  .26-    
200915 G96  .32+  .04-    200917 I52  .20-  .24-    200918 711  .35-  .01-    
200915 G96  .36-  .63-    200917 V06  .31+  .29-    200918 711  .02-  .53+    
200916 G96  .11+  .99+    200917 I52  .11+  .15+    200918 G96  .12+  .19+    
200916 G96  .45-  .46-    200917 V06  .30+  .31-    200918 G96  .17+  .27-    
200916 G96  .37+  .13+    200917 V06  .17+  .29-    

Ephemerides (geocentric):
Date (UTC) HH   RA              Dec         delta   r     elong  mag " sig PA
---- -- -- --  -------------   -----------  ------ ------ -----  --- ---- ---
2020 09 18 05  16 13 22.912   +00 51 32.56  .41995 .92896  67.5 20.6 .157 170
2020 09 18 06  16 13 28.513   +00 53 40.49  .42015 .92885  67.5 20.6 .168 166
2020 09 18 07  16 13 34.104   +00 55 48.31  .42034 .92873  67.5 20.6 .180 163
2020 09 18 08  16 13 39.685   +00 57 56.01  .42054 .92862  67.4 20.6 .193 160
2020 09 18 09  16 13 45.258   +01 00 03.59  .42073 .92851  67.4 20.6 .206 157
2020 09 18 10  16 13 50.822   +01 02 11.06  .42093 .92839  67.4 20.6 .220 155
2020 09 18 11  16 13 56.377   +01 04 18.41  .42112 .92828  67.4 20.6 .235 152
2020 09 18 12  16 14 01.923   +01 06 25.64  .42132 .92817  67.4 20.6 .251 150
2020 09 18 13  16 14 07.459   +01 08 32.75  .42151 .92805  67.4 20.6 .267 149
2020 09 18 14  16 14 12.987   +01 10 39.75  .42171 .92794  67.4 20.6 .284 147
2020 09 18 15  16 14 18.506   +01 12 46.63  .42190 .92783  67.3 20.6 .301 145
2020 09 18 16  16 14 24.015   +01 14 53.39  .42210 .92771  67.3 20.6 .319 144
2020 09 18 17  16 14 29.516   +01 17 00.04  .42229 .92760  67.3 20.6 .337 143
2020 09 18 18  16 14 35.008   +01 19 06.57  .42249 .92749  67.3 20.6 .356 142
2020 09 18 19  16 14 40.490   +01 21 12.99  .42268 .92737  67.3 20.6 .376 141
2020 09 18 20  16 14 45.964   +01 23 19.29  .42288 .92726  67.3 20.6 .396 140
2020 09 18 21  16 14 51.429   +01 25 25.47  .42307 .92715  67.3 20.6 .416 139
2020 09 18 22  16 14 56.885   +01 27 31.54  .42327 .92703  67.2 20.6 .437 138
2020 09 18 23  16 15 02.332   +01 29 37.49  .42346 .92692  67.2 20.6 .458 137
2020 09 19 00  16 15 07.770   +01 31 43.33  .42366 .92680  67.2 20.6 .480 136
2020 09 19 01  16 15 13.199   +01 33 49.05  .42385 .92669  67.2 20.6 .502 136
2020 09 19 02  16 15 18.619   +01 35 54.65  .42405 .92657  67.2 20.6 .525 135
2020 09 19 03  16 15 24.030   +01 38 00.14  .42424 .92646  67.2 20.6 .548 134
2020 09 19 04  16 15 29.432   +01 40 05.52  .42444 .92635  67.1 20.6 .572 134
2020 09 19 05  16 15 34.826   +01 42 10.78  .42463 .92623  67.1 20.6 .596 133
2020 09 19 06  16 15 40.211   +01 44 15.92  .42483 .92612  67.1 20.6 .621 133
2020 09 19 07  16 15 45.586   +01 46 20.95  .42502 .92600  67.1 20.6 .646 132
2020 09 19 08  16 15 50.953   +01 48 25.87  .42522 .92589  67.1 20.6 .671 132
2020 09 19 09  16 15 56.311   +01 50 30.67  .42541 .92577  67.1 20.6 .697 131
2020 09 19 10  16 16 01.661   +01 52 35.35  .42561 .92566  67.1 20.6 .723 131
2020 09 19 11  16 16 07.001   +01 54 39.93  .42580 .92554  67.0 20.6 .750 131
2020 09 19 12  16 16 12.332   +01 56 44.38  .42600 .92542  67.0 20.6 .777 130
2020 09 19 13  16 16 17.655   +01 58 48.73  .42619 .92531  67.0 20.6 .805 130
2020 09 19 14  16 16 22.969   +02 00 52.96  .42639 .92519  67.0 20.6 .833 130
2020 09 19 15  16 16 28.274   +02 02 57.07  .42658 .92508  67.0 20.6 .861 129
2020 09 19 16  16 16 33.571   +02 05 01.07  .42678 .92496  67.0 20.6 .890 129
2020 09 19 17  16 16 38.858   +02 07 04.96  .42697 .92485  67.0 20.6 .919 129
2020 09 19 18  16 16 44.137   +02 09 08.74  .42717 .92473  66.9 20.6 .949 128
2020 09 19 19  16 16 49.407   +02 11 12.40  .42736 .92461  66.9 20.6 .979 128
2020 09 19 20  16 16 54.669   +02 13 15.95  .42756 .92450  66.9 20.6 1.01 128
2020 09 19 21  16 16 59.921   +02 15 19.38  .42775 .92438  66.9 20.6 1.04 128
2020 09 19 22  16 17 05.165   +02 17 22.71  .42795 .92427  66.9 20.6 1.07 127
2020 09 19 23  16 17 10.400   +02 19 25.91  .42814 .92415  66.9 20.6 1.10 127
2020 09 20 00  16 17 15.626   +02 21 29.01  .42834 .92403  66.8 20.6 1.14 127
2020 09 20 01  16 17 20.844   +02 23 31.99  .42853 .92392  66.8 20.7 1.17 127
2020 09 20 02  16 17 26.053   +02 25 34.87  .42873 .92380  66.8 20.7 1.20 127
2020 09 20 03  16 17 31.253   +02 27 37.62  .42892 .92368  66.8 20.7 1.24 126
2020 09 20 04  16 17 36.445   +02 29 40.27  .42912 .92357  66.8 20.7 1.27 126